Hourly Weather Roundup
Issued by NWS Central Illinois

Home | Current Version | Previous Version | Text Only | Print | Product List | Glossary On
Versions: 1 2 3 4 5 6 7 8 9 10 11 12 13 14 15 16 17 18 19 20 21 22 23 24 25 26 27 28 29 30 31 32 33 34 35 36 37 38 39 40 41 42 43 44 45 46 47 48 49 50
000
NZUS43 KILX 201810
HWRILX

AREA WEATHER ROUNDUP
NATIONAL WEATHER SERVICE, LINCOLN IL
100 PM CDT WED AUG 20 2014


CITY           SKY/WX    TMP DP  RH WIND       PRES   REMARKS
BLOOMINGTON    CLOUDY    74  69  84 SW9       29.97R
CHAMPAIGN      LGT RAIN  71  70  96 S9        29.97F
6HR MIN TEMP:  65; 6HR MAX TEMP:  80; 6HR PCP:  0.11;

DECATUR        CLOUDY    71  68  90 S9        29.98R
6HR MIN TEMP:  70; 6HR MAX TEMP:  78; 6HR PCP:  0.35;

FLORA          RAIN      71  67  87 N5        30.07R
6HR MIN TEMP:  67; 6HR MAX TEMP:  77; 6HR PCP:  0.02;

GALESBURG      LGT RAIN  75  69  81 SE3       29.89F
JACKSONVILLE   CLOUDY    72  70  93 SE6       29.99F
6HR MIN TEMP:  72; 6HR MAX TEMP:  74; 6HR PCP:  0.13;

LACON          CLOUDY    78  69  72 SW7       29.93F HX  80
6HR MIN TEMP:  64; 6HR MAX TEMP:  79;

LAWRENCEVILLE  LGT RAIN  77  73  87 W7        30.02F
6HR MIN TEMP:  70; 6HR MAX TEMP:  83; 6HR PCP:  0.03;

LITCHFIELD     CLOUDY    72  68  87 SE7       30.00S
$$


CITY           SKY/WX    TMP DP  RH WIND       PRES   REMARKS
LINCOLN        LGT RAIN  72  69  92 S5        29.96R
6HR MIN TEMP:  65; 6HR MAX TEMP:  74; 6HR PCP:  0.14;

MACOMB         CLOUDY    70  70 100 S6        29.97R
MATTOON        RAIN      69  67  93 S6        29.99F
6HR MIN TEMP:  69; 6HR MAX TEMP:  80; 6HR PCP:  0.17;

MT CARMEL AP   CLOUDY    81  75  83 W5        30.02R THUNDER HX  86
OLNEY-NOBLE AP   N/A     70  66  88 N5G25     30.06R
PARIS          RAIN      72  71  98 W8        30.05R
6HR MIN TEMP:  67; 6HR MAX TEMP:  81; 6HR PCP:  0.91;

PEORIA         CLOUDY    76  68  76 SW7       29.94F
6HR MIN TEMP:  67; 6HR MAX TEMP:  77; 6HR PCP:  0.03;

PONTIAC        CLOUDY    82  70  65 SW7       29.93S HX  86
RANTOUL        LGT RAIN  75  71  87 S9        29.97F
6HR MIN TEMP:  65; 6HR MAX TEMP:  81;

ROBINSON       RAIN      76  74  94 W8        30.04R
6HR MIN TEMP:  68; 6HR MAX TEMP:  85; 6HR PCP:  0.03;

SPRINGFIELD    CLOUDY    73  70  90 SW8       30.01R
6HR MIN TEMP:  68; 6HR MAX TEMP:  75; 6HR PCP:  2.14;

TAYLORVILLE    RAIN      68  66  94 S5        29.99R
$$

...REGIONAL REPORTS...


CITY           SKY/WX    TMP DP  RH WIND       PRES   REMARKS
CHICAGO O`HARE PTSUNNY   83  64  52 SW12G20   29.91S HX  84
KANKAKEE       PTSUNNY   83  69  62 SW10      29.94F HX  87
MOLINE         CLOUDY    79  68  69 SE3       29.90F HX  81
MOUNT VERNON   CLOUDY    79  72  78 N12       30.03R HX  82
PITTSFIELD     CLOUDY    78  72  80 E6        29.99S HX  81
QUINCY         CLOUDY    80  72  76 SE8       29.95F HX  84
ROCKFORD       PTSUNNY   84  66  54 W12       29.92S HX  86
$$


CITY           SKY/WX    TMP DP  RH WIND       PRES   REMARKS
BURLINGTON     CLOUDY    70  69  97 S8        29.92F
CEDAR RAPIDS   CLOUDY    74  68  81 E7        29.85F
DES MOINES     LGT RAIN  74  68  81 S8        29.86R
KIRKSVILLE     CLOUDY    82  71  69 E8        29.95F HX  86
OTTUMWA        CLOUDY    74  69  85 S12       29.88F
ST LOUIS       CLOUDY    89  74  60 VRB3      29.98S HX  98
$$


CITY           SKY/WX    TMP DP  RH WIND       PRES   REMARKS
TERRE HAUTE    LGT RAIN  77  70  79 W12G22    30.03R
EVANSVILLE     CLOUDY    85  76  74 W7        30.00R HX  94
INDIANAPOLIS   CLOUDY    81  68  64 W16       29.99R THUNDER HX  84
LAFAYETTE      CLOUDY    80  69  69 SW8       29.97R HX  83
MADISON        PTSUNNY   82  64  54 W7        29.88F HX  83
MILWAUKEE      PTSUNNY   76  65  68 SE6       29.90R
$$





USA.gov is the U.S. government's official web portal to all federal, state and local government web resources and services.